Fullerton, CA

8:23 PM PDT on July 23, 2017 (GMT -0700)
Fullerton Municipal

Weather History for KFUL - June, 2012

Change the Weather History Date:

Monday, June 18, 2012

  Actual Average Record
Temperature  
Mean Temperature 74 °F 70 °F  
Max Temperature 83 °F 79 °F 98 °F (2008)
Min Temperature 65 °F 61 °F 55 °F (2005)
Degree Days  
Heating Degree Days 0 0  
Month to date heating degree days 0 0  
Since 1 June heating degree days 0 0  
Since 1 July heating degree days 863 1224  
Cooling Degree Days 9 5  
Month to date cooling degree days 112 70  
Year to date cooling degree days 368 193  
Since 1 June cooling degree days 112 70  
Growing Degree Days 23 (Base 50)    
Moisture  
Dew Point 57 °F    
Average Humidity 60    
Maximum Humidity 78    
Minimum Humidity 42    
Precipitation  
Precipitation 0.00 in 0.00 in 0.07 in (1982)
Month to date precipitation 0.00 0.07  
Year to date precipitation 3.53 9.63  
Since 1 July precipitation 6.20  
Snow  
Snow 0.00 in - - ()
Month to date snowfall 0.0  
Year to date snowfall 0.0  
Snow Depth 0.00 in    
Sea Level Pressure  
Sea Level Pressure 29.88 in    
Wind  
Wind Speed 3 mph (West)    
Max Wind Speed 10 mph    
Max Gust Speed 16 mph    
Visibility 8 miles    
Events      
T = Trace of Precipitation, MM = Missing Value Source: NWS Daily Summary

Daily Weather History Graph

Daily Weather History Graph

Search for Another Location

Airport or City:

Trip Planner

Search our weather history database for the weather conditions in past years. The results will help you decide how hot, cold, wet, or windy it might be!

Date:

Astronomy

Jun. 18, 2012 Rise Set
Actual Time 5:40 AM PDT 8:05 PM PDT
Civil Twilight 5:11 AM PDT 8:34 PM PDT
Nautical Twilight 4:35 AM PDT 9:10 PM PDT
Astronomical Twilight 3:56 AM PDT 9:49 PM PDT
Moon 4:57 AM PDT (6/18) 7:29 PM PDT (6/18)
Length of Visible Light 15h 22m
Length of Day
14h 24m
Waning Crescent, 1% of the Moon is Illuminated
Jun 18
Waning Crescent
Jun 19
New
Jun 26
First Quarter
Jul 3
Full
Jul 10
Last Quarter

Hourly Weather History & Observations

Time (PDT) Temp. Heat Index Dew Point Humidity Pressure Visibility Wind Dir Wind Speed Gust Speed Precip Events Conditions
12:53 AM 66.0 °F - 57.9 °F 75% 29.89 in 7.0 mi Calm Calm - N/A   Overcast
1:48 AM 66.2 °F - 57.2 °F 73% 29.88 in 7.0 mi WNW 3.5 mph - N/A   Overcast
1:53 AM 66.0 °F - 57.9 °F 75% 29.88 in 7.0 mi Calm Calm - N/A   Overcast
2:53 AM 66.0 °F - 57.9 °F 75% 29.88 in 7.0 mi WNW 3.5 mph - N/A   Overcast
3:17 AM 64.4 °F - 57.2 °F 77% 29.89 in 7.0 mi Calm Calm - N/A   Overcast
3:53 AM 64.9 °F - 57.9 °F 78% 29.88 in 7.0 mi NNW 3.5 mph - N/A   Overcast
4:53 AM 64.9 °F - 57.9 °F 78% 29.88 in 7.0 mi Variable 3.5 mph - N/A   Overcast
5:53 AM 64.9 °F - 57.9 °F 78% 29.88 in 7.0 mi Variable 3.5 mph - N/A   Overcast
6:53 AM 64.9 °F - 57.9 °F 78% 29.90 in 5.0 mi Calm Calm - N/A   Haze
7:53 AM 64.9 °F - 57.0 °F 75% 29.91 in 5.0 mi Calm Calm - N/A   Haze
8:26 AM 64.4 °F - 57.2 °F 77% 29.92 in 6.0 mi Calm Calm - N/A   Haze
8:53 AM 66.0 °F - 57.0 °F 73% 29.92 in 5.0 mi Calm Calm - N/A   Haze
9:53 AM 68.0 °F - 57.9 °F 70% 29.92 in 6.0 mi Calm Calm - N/A   Haze
10:14 AM 69.8 °F - 57.2 °F 64% 29.92 in 6.0 mi Calm Calm - N/A   Haze
10:53 AM 72.0 °F - 57.9 °F 61% 29.93 in 6.0 mi Calm Calm - N/A   Haze
11:53 AM 73.9 °F - 59.0 °F 59% 29.91 in 7.0 mi South 4.6 mph - N/A   Clear
12:53 PM 80.1 °F 80.7 °F 59.0 °F 48% 29.89 in 10.0 mi SW 6.9 mph - N/A   Clear
1:53 PM 80.1 °F 80.4 °F 57.0 °F 45% 29.88 in 10.0 mi Variable 3.5 mph - N/A   Clear
2:53 PM 82.0 °F 82.0 °F 57.9 °F 44% 29.86 in 10.0 mi SSW 9.2 mph - N/A   Clear
3:53 PM 82.0 °F 81.7 °F 57.0 °F 42% 29.85 in 10.0 mi West 6.9 mph - N/A   Clear
4:53 PM 80.1 °F 80.2 °F 55.9 °F 43% 29.84 in 10.0 mi West 5.8 mph - N/A   Clear
5:53 PM 77.0 °F - 55.9 °F 48% 29.83 in 10.0 mi NW 5.8 mph - N/A   Clear
6:53 PM 75.0 °F - 57.0 °F 53% 29.83 in 10.0 mi West 8.1 mph - N/A   Clear
7:53 PM 70.0 °F - 55.9 °F 61% 29.84 in 10.0 mi West 6.9 mph - N/A   Clear
8:53 PM 66.0 °F - 55.9 °F 70% 29.85 in 10.0 mi Variable 6.9 mph - N/A   Clear
9:53 PM 64.9 °F - 55.9 °F 73% 29.87 in 10.0 mi West 4.6 mph - N/A   Clear
10:53 PM 64.0 °F - 55.9 °F 75% 29.88 in 10.0 mi Calm Calm - N/A   Scattered Clouds
11:02 PM 64.4 °F - 57.2 °F 77% 29.88 in 10.0 mi WNW 3.5 mph - N/A   Mostly Cloudy
11:53 PM 64.9 °F - 57.0 °F 75% 29.88 in 10.0 mi WSW 4.6 mph - N/A   Overcast